Belize, Belize

12:00 PM CST on September 22, 2017 (GMT -0600)
Philip S W Goldson International

Weather History for MZBZ - April, 2014

Change the Weather History Date:

Sunday, April 6, 2014

  Actual Average Record
Temperature  
Mean Temperature 83 °F -  
Max Temperature 88 °F 88 °F 91 °F (1998)
Min Temperature 78 °F 74 °F 68 °F (2013)
Cooling Degree Days 18    
Growing Degree Days 33 (Base 50)    
Moisture  
Dew Point 74 °F    
Average Humidity 70    
Maximum Humidity 89    
Minimum Humidity 53    
Precipitation  
Precipitation 0.00 in 0.08 in - ()
Sea Level Pressure  
Sea Level Pressure 29.82 in    
Wind  
Wind Speed 7 mph ()    
Max Wind Speed 14 mph    
Max Gust Speed -    
Visibility 8.2 miles    
Events      
Averages and records for this station are not official NWS values.
T = Trace of Precipitation, MM = Missing Value Source: Averaged Metar Reports

Daily Weather History Graph

Daily Weather History Graph

Search for Another Location

Airport or City:

Trip Planner

Search our weather history database for the weather conditions in past years. The results will help you decide how hot, cold, wet, or windy it might be!

Date:

Astronomy

Apr. 06, 2014 Rise Set
Actual Time 5:43 AM CST 6:07 PM CST
Civil Twilight 5:21 AM CST 6:29 PM CST
Nautical Twilight 4:56 AM CST 6:54 PM CST
Astronomical Twilight 4:30 AM CST 7:20 PM CST
Moon 11:11 AM CST (4/6) No Moon Set
Length of Visible Light 13h 07m
Length of Day
12h 23m
Waxing Crescent, 44% of the Moon is Illuminated
Apr 6
Waxing Crescent
Apr 7
First Quarter
Apr 15
Full
Apr 22
Last Quarter
Apr 29
New

Hourly Weather History & Observations

Time (CST) Temp. Heat Index Dew Point Humidity Pressure Visibility Wind Dir Wind Speed Gust Speed Precip Events Conditions
12:00 AM 80 °F - 73 °F 75% 29.90 in 12 mi East 6.9 mph - -   Scattered Clouds
3:00 AM 78 °F - 74 °F 83% 29.84 in 12 mi ESE 5.8 mph - -   Scattered Clouds
5:00 AM 78.8 °F - 73.4 °F 83% 29.84 in 6.2 mi ESE 5.8 mph - N/A   Partly Cloudy
6:00 AM 78 °F - 75 °F 88% 29.86 in 12 mi ESE 4.6 mph - -   Partly Cloudy
6:00 AM 78.8 °F - 75.2 °F 89% 29.85 in 6.2 mi ESE 4.6 mph - N/A   Scattered Clouds
7:00 AM 80.6 °F 85.4 °F 73.4 °F 79% 29.87 in 6.2 mi ESE 8.1 mph - N/A   Scattered Clouds
8:00 AM 84.2 °F 90.9 °F 73.4 °F 70% 29.87 in 6.2 mi ESE 10.4 mph - N/A   Scattered Clouds
9:00 AM 84 °F - 74 °F 65% 29.88 in 12 mi SE 8.1 mph - -   Partly Cloudy
9:00 AM 84.2 °F 90.9 °F 73.4 °F 70% 29.88 in 6.2 mi SE 8.1 mph - N/A   Scattered Clouds
10:00 AM 86.0 °F 93.4 °F 73.4 °F 66% 29.87 in 6.2 mi ESE 10.4 mph - N/A   Scattered Clouds
11:00 AM 87.8 °F 95.6 °F 73.4 °F 62% 29.86 in 6.2 mi SE 9.2 mph - N/A   Partly Cloudy
12:00 PM 87 °F - 74 °F 57% 29.84 in 12 mi ESE 11.5 mph - -   Partly Cloudy
12:00 PM 86.0 °F 93.4 °F 73.4 °F 66% 29.83 in 6.2 mi ESE 11.5 mph - N/A   Scattered Clouds
1:00 PM 87.8 °F 97.6 °F 75.2 °F 66% 29.81 in 6.2 mi SE 8.1 mph - N/A   Scattered Clouds
2:00 PM 87.8 °F 97.6 °F 75.2 °F 66% 29.77 in 6.2 mi SE 8.1 mph - N/A   Partly Cloudy
3:00 PM 88 °F - 73 °F 53% 29.76 in 12 mi ESE 6.9 mph - -   Scattered Clouds
3:00 PM 87.8 °F 95.6 °F 73.4 °F 62% 29.75 in 6.2 mi ESE 6.9 mph - N/A   Partly Cloudy
4:00 PM 86.0 °F 93.4 °F 73.4 °F 66% 29.74 in 6.2 mi East 10.4 mph - N/A   Partly Cloudy
5:00 PM 86.0 °F 93.4 °F 73.4 °F 66% 29.73 in 6.2 mi East 10.4 mph - N/A   Partly Cloudy
6:00 PM 82 °F - 72 °F 65% 29.74 in 12 mi ESE 5.8 mph - -   Scattered Clouds
6:00 PM 82.4 °F 87.2 °F 71.6 °F 70% 29.74 in 6.2 mi ESE 5.8 mph - N/A   Partly Cloudy
9:00 PM 80 °F - 74 °F 79% 29.79 in 12 mi East 8.1 mph - -   Scattered Clouds
9:00 PM - - - N/A% - 6.2 mi ESE 13.8 mph - N/A   Partly Cloudy